Year,Month,Day,Hour,Minute,Value (Times are PST for temperature in C)
2016,07,20,00,00,16.90
2016,07,20,00,01,16.90
2016,07,20,00,02,16.80
2016,07,20,00,03,16.80
2016,07,20,00,04,16.80
2016,07,20,00,05,16.80
2016,07,20,00,06,16.80
2016,07,20,00,07,16.80
2016,07,20,00,08,16.80
2016,07,20,00,09,16.80
2016,07,20,00,10,16.80
2016,07,20,00,11,16.80
2016,07,20,00,12,16.70
2016,07,20,00,13,16.70
2016,07,20,00,14,16.70
2016,07,20,00,15,16.70
2016,07,20,00,16,16.70
2016,07,20,00,17,16.70
2016,07,20,00,18,16.70
2016,07,20,00,19,16.70
2016,07,20,00,20,16.70
2016,07,20,00,21,16.60
2016,07,20,00,22,16.60
2016,07,20,00,23,16.60
2016,07,20,00,24,16.60
2016,07,20,00,25,16.60
2016,07,20,00,26,16.60
2016,07,20,00,27,16.60
2016,07,20,00,28,16.60
2016,07,20,00,29,16.50
2016,07,20,00,30,16.50
2016,07,20,00,31,16.40
2016,07,20,00,32,16.40
2016,07,20,00,33,16.40
2016,07,20,00,34,16.40
2016,07,20,00,35,16.40
2016,07,20,00,36,16.30
2016,07,20,00,37,16.30
2016,07,20,00,38,16.30
2016,07,20,00,39,16.30
2016,07,20,00,40,16.20
2016,07,20,00,41,16.20
2016,07,20,00,42,16.20
2016,07,20,00,43,16.20
2016,07,20,00,44,16.20
2016,07,20,00,45,16.20
2016,07,20,00,46,16.20
2016,07,20,00,47,16.20
2016,07,20,00,48,16.20
2016,07,20,00,49,16.10
2016,07,20,00,50,16.10
2016,07,20,00,51,16.10
2016,07,20,00,52,16.10
2016,07,20,00,53,16.10
2016,07,20,00,54,16.10
2016,07,20,00,55,16.10
2016,07,20,00,56,16.10
2016,07,20,00,57,16.10
2016,07,20,00,58,16.10
2016,07,20,00,59,16.00
2016,07,20,01,00,16.00
2016,07,20,01,01,16.00
2016,07,20,01,02,16.00
2016,07,20,01,03,16.00
2016,07,20,01,04,16.00
2016,07,20,01,05,16.00
2016,07,20,01,06,16.00
2016,07,20,01,07,15.90
2016,07,20,01,08,15.90
2016,07,20,01,09,15.90
2016,07,20,01,10,15.90
2016,07,20,01,11,15.90
2016,07,20,01,12,15.90
2016,07,20,01,13,15.80
2016,07,20,01,14,15.80
2016,07,20,01,15,15.80
2016,07,20,01,16,15.70
2016,07,20,01,17,15.70
2016,07,20,01,18,15.60
2016,07,20,01,19,15.50
2016,07,20,01,20,15.40
2016,07,20,01,21,15.30
2016,07,20,01,22,15.30
2016,07,20,01,23,15.20
2016,07,20,01,24,15.20
2016,07,20,01,25,15.10
2016,07,20,01,26,15.10
2016,07,20,01,27,15.10
2016,07,20,01,28,15.10
2016,07,20,01,29,15.00
2016,07,20,01,30,15.10
2016,07,20,01,31,15.10
2016,07,20,01,32,15.00
2016,07,20,01,33,15.00
2016,07,20,01,34,15.00
2016,07,20,01,35,15.00
2016,07,20,01,36,15.00
2016,07,20,01,37,15.00
2016,07,20,01,38,15.10
2016,07,20,01,39,15.10
2016,07,20,01,40,15.10
2016,07,20,01,41,15.10
2016,07,20,01,42,15.10
2016,07,20,01,43,15.10
2016,07,20,01,44,15.10
2016,07,20,01,45,15.20
2016,07,20,01,46,15.10
2016,07,20,01,47,15.20
2016,07,20,01,48,15.20
2016,07,20,01,49,15.20
2016,07,20,01,50,15.20
2016,07,20,01,51,15.20
2016,07,20,01,52,15.20
2016,07,20,01,53,15.10
2016,07,20,01,54,15.10
2016,07,20,01,55,15.10
2016,07,20,01,56,15.00
2016,07,20,01,57,15.00
2016,07,20,01,58,14.90
2016,07,20,01,59,14.90
2016,07,20,02,00,14.90
2016,07,20,02,01,14.90
2016,07,20,02,02,14.80
2016,07,20,02,03,14.80
2016,07,20,02,04,14.80
2016,07,20,02,05,14.80
2016,07,20,02,06,14.80
2016,07,20,02,07,14.80
2016,07,20,02,08,14.70
2016,07,20,02,09,14.80
2016,07,20,02,10,14.70
2016,07,20,02,11,14.70
2016,07,20,02,12,14.70
2016,07,20,02,13,14.70
2016,07,20,02,14,14.70
2016,07,20,02,15,14.60
2016,07,20,02,16,14.60
2016,07,20,02,17,14.60
2016,07,20,02,18,14.60
2016,07,20,02,19,14.60
2016,07,20,02,20,14.60
2016,07,20,02,21,14.50
2016,07,20,02,22,14.50
2016,07,20,02,23,14.50
2016,07,20,02,24,14.40
2016,07,20,02,25,14.40
2016,07,20,02,26,14.40
2016,07,20,02,27,14.30
2016,07,20,02,28,14.30
2016,07,20,02,29,14.30
2016,07,20,02,30,14.20
2016,07,20,02,31,14.20
2016,07,20,02,32,14.20
2016,07,20,02,33,14.10
2016,07,20,02,34,14.10
2016,07,20,02,35,14.10
2016,07,20,02,36,14.10
2016,07,20,02,37,14.10
2016,07,20,02,38,14.10
2016,07,20,02,39,14.10
2016,07,20,02,40,14.10
2016,07,20,02,41,14.00
2016,07,20,02,42,14.00
2016,07,20,02,43,14.00
2016,07,20,02,44,14.00
2016,07,20,02,45,14.00
2016,07,20,02,46,13.90
2016,07,20,02,47,13.90
2016,07,20,02,48,13.90
2016,07,20,02,49,13.90
2016,07,20,02,50,13.90
2016,07,20,02,51,13.90
2016,07,20,02,52,13.90
2016,07,20,02,53,13.90
2016,07,20,02,54,13.90
2016,07,20,02,55,13.90
2016,07,20,02,56,13.90
2016,07,20,02,57,13.90
2016,07,20,02,58,13.90
2016,07,20,02,59,13.90
2016,07,20,03,00,13.90
2016,07,20,03,01,13.90
2016,07,20,03,02,13.90
2016,07,20,03,03,13.90
2016,07,20,03,04,13.90
2016,07,20,03,05,13.80
2016,07,20,03,06,13.80
2016,07,20,03,07,13.80
2016,07,20,03,08,13.80
2016,07,20,03,09,13.80
2016,07,20,03,10,13.80
2016,07,20,03,11,13.80
2016,07,20,03,12,13.80
2016,07,20,03,13,13.80
2016,07,20,03,14,13.80
2016,07,20,03,15,13.80
2016,07,20,03,16,13.80
2016,07,20,03,17,13.70
2016,07,20,03,18,13.70
2016,07,20,03,19,13.70
2016,07,20,03,20,13.70
2016,07,20,03,21,13.70
2016,07,20,03,22,13.70
2016,07,20,03,23,13.70
2016,07,20,03,24,13.70
2016,07,20,03,25,13.70
2016,07,20,03,26,13.60
2016,07,20,03,27,13.60
2016,07,20,03,28,13.60
2016,07,20,03,29,13.60
2016,07,20,03,30,13.50
2016,07,20,03,31,13.40
2016,07,20,03,32,13.40
